Volver al catálogo

CZ-6A DEB

ActivoSSO
NORAD 54315·DEBRIS·🇨🇳 China

Lanzado Nov 11, 2022 desde Taiyuan Satellite Launch Center

Loading…

Próximos Pases (próximas 24 horas)

TLE

ActualizadoSource: Space-Track

Época: Sep 14, 2026, 23:09 UTC

1 54315U 22151BJ  26257.96527315  .00000125  00000-0  92840-4 0  9994
2 54315  98.8518 260.1465 0044814  90.6780 269.9526 14.10957746197172

Sigue CZ-6A DEB en tiempo real con AllMySat

Download on the App Store